CW1172 Uddevalla SE current weather conditions

sailwx.info

Wind from 229 at 1 knots

Air temperature 16.1° C
Dewpoint 16.1° C

Last reported at 2019-Jul-23 03:00 UTC.
Time now 2019-Jul-23 03:37 UTC

Location: N 58°13' E 011°56'.
View on Google Maps.

See reports from other nearby stations

  
Tides and Currents Weather Stations Pressure Air Temp Water Temp Dewpoint Dewpoint Depression Visibility Wind Speed Wind Dir Waves Ship Positions
date/time (UTC)wind fromknots sea level pressurealtimeterstation pressurevisibilityair tempwater tempwave heightnotes
2019-Jul-23 03:00 229 1 16.1
2019-Jul-23 02:46 230 2 16.1
2019-Jul-23 02:31 272 0 16.1
2019-Jul-23 02:15 260 0 16.1
2019-Jul-23 02:01 261 0 16.1
2019-Jul-23 01:45 263 1 16.1
2019-Jul-23 01:30 274 3 16.1
2019-Jul-23 01:15 229 0 16.1
2019-Jul-23 01:00 246 0 16.1
2019-Jul-23 00:45 233 4 16.1
2019-Jul-23 00:30 223 0 16.1
2019-Jul-23 00:15 226 2 16.1
2019-Jul-23 00:02 253 0 16.7
2019-Jul-22 23:46 227 4 16.7
2019-Jul-22 23:31 246 5 16.7
2019-Jul-22 23:16 260 2 16.7
2019-Jul-22 23:01 241 0 16.7
2019-Jul-22 22:46 217 3 16.1
2019-Jul-22 22:30 265 2 16.1
2019-Jul-22 22:16 253 2 16.1
2019-Jul-22 22:02 189 16.1
2019-Jul-22 21:45 192 15.6
2019-Jul-22 21:31 168 15.6
2019-Jul-22 21:16 222 15.6
2019-Jul-22 21:01 136 0 15.6
2019-Jul-22 20:45 144 0 15.6
2019-Jul-22 20:30 172 15.6
2019-Jul-22 20:15 233 0 15.6
2019-Jul-22 20:01 244 0 15.6
2019-Jul-22 19:45 188 1 15.6
2019-Jul-22 19:30 144 15.6
2019-Jul-22 19:15 158 15.6
2019-Jul-22 19:00 148 15.6
2019-Jul-22 18:45 151 1 15.6
2019-Jul-22 18:30 212 0 15.6
2019-Jul-22 18:16 241 0 15.6
2019-Jul-22 18:00 138 0 15.6
2019-Jul-22 17:45 216 15.6
2019-Jul-22 17:30 219 1 15.6
2019-Jul-22 17:15 175 0 15.6
2019-Jul-22 17:00 171 0 15.6
2019-Jul-22 16:45 217 0 15.6
2019-Jul-22 16:30 154 0 15.6
2019-Jul-22 16:15 198 16.1
2019-Jul-22 16:00 188 1 16.1
2019-Jul-22 15:45 172 2 16.1
2019-Jul-22 15:30 219 3 16.1
2019-Jul-22 15:16 244 2 16.7
2019-Jul-22 15:00 202 2 16.7
2019-Jul-22 14:45 224 3 16.7
2019-Jul-22 14:30 244 4 17.2
2019-Jul-22 14:15 260 2 17.8
2019-Jul-22 14:00 241 3 17.8
2019-Jul-22 13:45 256 2 17.8
2019-Jul-22 13:30 212 1 17.8
2019-Jul-22 13:15 219 3 18.3
2019-Jul-22 13:00 227 2 18.3
2019-Jul-22 12:47 217 3 18.3
2019-Jul-22 12:32 215 4 18.3
2019-Jul-22 12:16 240 1 17.8
2019-Jul-22 12:02 267 2 18.3
2019-Jul-22 11:46 213 2 17.8
2019-Jul-22 11:31 237 4 17.8
2019-Jul-22 11:17 222 2 17.8
2019-Jul-22 11:01 247 2 18.3
2019-Jul-22 10:47 200 4 18.3
2019-Jul-22 10:31 264 4 18.3
2019-Jul-22 10:16 223 2 17.8
2019-Jul-22 10:00 278 3 17.8
2019-Jul-22 09:46 248 3 17.8
2019-Jul-22 09:31 256 3 17.8
2019-Jul-22 09:15 250 3 17.8
2019-Jul-22 09:01 299 4 17.2
2019-Jul-22 08:45 263 3 17.8
2019-Jul-22 08:30 257 4 17.8
2019-Jul-22 08:16 193 3 17.8
2019-Jul-22 08:00 272 3 17.8
2019-Jul-22 07:46 337 3 18.3
2019-Jul-22 07:30 250 5 17.8
2019-Jul-22 07:15 260 2 17.2
2019-Jul-22 07:00 256 1 17.2
2019-Jul-22 06:45 347 2 17.2
2019-Jul-22 06:30 285 2 16.7
2019-Jul-22 06:15 272 3 17.2
2019-Jul-22 06:02 268 3 16.7
2019-Jul-22 05:46 251 2 16.7
2019-Jul-22 05:31 267 3 16.1
2019-Jul-22 05:16 247 4 15.6
2019-Jul-22 05:01 224 2 15.6
2019-Jul-22 04:46 257 2 15.0
2019-Jul-22 04:31 246 3 15.0
2019-Jul-22 04:16 267 0 14.4
2019-Jul-22 04:00 254 2 14.4
2019-Jul-22 03:45 257 2 14.4
2019-Jul-22 03:30 267 3 14.4
2019-Jul-22 03:16 265 1 14.4
2019-Jul-22 03:01 217 0 14.4
2019-Jul-22 02:45 229 1 14.4
2019-Jul-22 02:31 220 3 14.4
2019-Jul-22 02:15 263 2 14.4
2019-Jul-22 02:00 247 1 14.4
2019-Jul-22 01:45 240 0 14.4
2019-Jul-22 01:30 234 3 14.4
2019-Jul-22 01:15 246 0 14.4
2019-Jul-22 01:00 226 2 15.0
2019-Jul-22 00:46 260 1 15.0
2019-Jul-22 00:30 268 1 15.0
2019-Jul-22 00:15 244 2 15.0
2019-Jul-22 00:01 233 1 15.0
2019-Jul-21 23:45 271 2 15.0
2019-Jul-21 23:30 229 4 15.6
2019-Jul-21 23:15 208 1 15.6
2019-Jul-21 22:46 209 1 15.6
2019-Jul-21 22:31 200 1 15.6
2019-Jul-21 22:16 199 0 15.6
2019-Jul-21 22:01 258 0 15.6
2019-Jul-21 21:46 219 0 16.1
2019-Jul-21 21:31 239 1 16.1
2019-Jul-21 21:16 284 2 16.1
2019-Jul-21 21:01 246 2 16.1
2019-Jul-21 20:46 210 1 16.1
2019-Jul-21 20:31 264 2 16.1
2019-Jul-21 20:16 216 0 16.1
2019-Jul-21 20:02 236 1 16.1
2019-Jul-21 19:45 192 1 16.1
2019-Jul-21 19:31 239 2 16.1
2019-Jul-21 19:16 232 4 16.1
2019-Jul-21 19:01 236 2 16.1
2019-Jul-21 18:46 250 3 16.1
2019-Jul-21 18:31 234 6 16.1
2019-Jul-21 18:16 258 4 16.7
2019-Jul-21 18:01 229 2 16.7
2019-Jul-21 17:46 232 0 16.7
2019-Jul-21 17:30 244 16.7
2019-Jul-21 17:15 244 0 16.7
2019-Jul-21 17:00 258 4 16.7
2019-Jul-21 16:45 230 5 17.2
2019-Jul-21 16:32 270 1 17.8
2019-Jul-21 16:16 253 4 18.3
2019-Jul-21 16:01 282 5 18.3
2019-Jul-21 15:45 256 1 19.4
2019-Jul-21 15:30 250 0 19.4
2019-Jul-21 15:15 240 2 20.0
2019-Jul-21 15:00 192 0 20.0
2019-Jul-21 14:45 254 0 20.0
2019-Jul-21 14:30 241 2 20.0
2019-Jul-21 14:15 296 19.4
2019-Jul-21 14:00 318 19.4
2019-Jul-21 13:45 328 19.4
2019-Jul-21 13:30 220 19.4
2019-Jul-21 13:15 280 0 20.0
2019-Jul-21 13:00 271 2 20.6
2019-Jul-21 12:45 246 5 20.6
2019-Jul-21 12:30 250 4 20.6
2019-Jul-21 12:15 250 3 21.1
2019-Jul-21 12:00 240 2 21.7
2019-Jul-21 11:45 193 6 21.1
2019-Jul-21 11:30 251 3 21.7
2019-Jul-21 11:15 205 5 21.1
2019-Jul-21 11:00 229 3 20.6
2019-Jul-21 10:45 209 2 20.0
2019-Jul-21 10:30 254 4 20.6
2019-Jul-21 10:15 267 5 20.0
2019-Jul-21 10:00 189 4 20.0
2019-Jul-21 09:45 208 3 19.4
2019-Jul-21 09:30 233 2 18.9
2019-Jul-21 09:15 198 0 18.9
2019-Jul-21 09:00 152 0 18.3
2019-Jul-21 08:45 200 0 18.3
2019-Jul-21 08:30 229 18.3
2019-Jul-21 08:15 151 18.3
2019-Jul-21 08:00 193 0 17.8
2019-Jul-21 07:45 230 1 17.8
2019-Jul-21 07:30 253 3 17.8
2019-Jul-21 07:16 208 0 17.8
2019-Jul-21 07:02 219 1 17.8
2019-Jul-21 06:46 209 17.2
2019-Jul-21 06:33 230 1 17.2
2019-Jul-21 06:17 150 0 17.2
2019-Jul-21 06:03 215 16.7
2019-Jul-21 05:47 248 16.7
2019-Jul-21 05:32 247 16.7
2019-Jul-21 05:17 161 16.1
2019-Jul-21 05:01 109 0 16.1
2019-Jul-21 04:46 109 15.6
2019-Jul-21 04:32 160 15.0
2019-Jul-21 04:16 144 1 15.0
2019-Jul-21 04:01 124 3 15.0
2019-Jul-21 03:47 141 1 14.4
2019-Jul-21 03:31 140 3 14.4
2019-Jul-21 03:16 134 15.0
2019-Jul-21 03:01 117 0 15.0